STARLINK-3778, 52276

Orbit data source: Space-Track

STARLINK-3778, 52276 is a payload satellite owned by SpaceX/Seattle (US) in LEO that was launched on Thu, 21 Apr 2022 UTC via an FALCON 9 launch vehicle from the Air Force Eastern Test Range (AFETR). Payload-class satellites include a variety of spacecraft equipped with specific instruments for various scientific and technological missions. These include communications satellites like Starlink; space stations such as the ISS; scientific satellites like the Hubble; Earth observation satellites from companies like Planet Labs, Umbra, and HawkEye 360; GPS; miniature CubeSats for education and research; and military/defense satellites.

Loading next visibility...
Identifier
52276, 2022-041R
Orbit
LEO
Country
Flag of USUS
Related business
Manufacturer
SpaceX/Seattle
Mission
Operational Commercial Communications
Bus & Motor
STARLINK, Unknown motor
Mass
297 kg wet, ~275 kg dry
Launch date (UTC)
2022-04-21 (4 years ago)
Launch vehicle
FALCON 9
Launch site
Air Force Eastern Test Range (AFETR)
Object type
Payload
Rocket body
Debris
Shape & HBR
Box + 1 Pan, 10.1 m
Radar Cross Section
11.087 m², Large (>1 m²)

Expand to show TLE details & history
Last TLE update: 18 hours ago

TLE from 18 hours ago
0 STARLINK-3778
1 52276U 22041R   26206.31831459 -.00000272  00000-0  97552-6 0  9997
2 52276  53.1589 210.9564 0000921  61.5019 298.6065 15.08840008235141
Epoch: 2026-07-25T07:38Z
TLE epoch observation values (Epoch: 2026-07-25T07:38:22.380Z)
Latitude
-0.00003°
Longitude
153.33081°
Altitude
540.33 km
Speed
7.594 km/s
True Right ascension
14h 03m 49s
True Declination
0° 00' 00"
Sunlit
Object was in daylight at epoch
Visualization orbit readout
Latitude
Unknown
Longitude
Unknown
Altitude
Unknown
Speed
Unknown
Apparent Right ascension
Unknown
Apparent Declination
Unknown
Sunlit
N/A
Visualization observer readout
Local Sidereal Time
14:32:47
Azimuth
Unknown
Elevation
Unknown
Doppler factor
Unknown
Orbital elements
Apogee altitude
540.635 km
Perigee altitude
539.36 km
Semi-major axis
6,918.135 km
Eccentricity
0.00009
Inclination
53.1589°
RAAN
210.9564°
Arg. of periapsis
61.5019°
True anomaly
298.59723°
Mean anomaly
298.6065°
Eccentric anomaly
298.60187°
Mean motion
3.7719 °/min
Orbital period
95.44 mins
BSTAR
9.7552e-7
Loading maneuver chart data...
Computing Atmospheric mass density...
Loading historical data...
Loading historical data...
Loading historical data...
Loading historical data...
Loading historical data...
Loading historical data...
Loading historical data...

Documentation

Showing up to 5 results
|